Location: Huntsville
(34.7300°N, 86.5860°W)
Time: 11:38:27
(UTC-05:00)

Daily predictions for brighter satellites

Satellite Brightness Start Highest point End
(mag) Time Altitude Azimuth Time Altitude Azimuth Time Altitude Azimuth
Cosmos 44 Rocket 3.6 19:40:32 10° SW 19:45:14 74° WNW 19:50:05 10° NNE
Cosmos 1437 2.6 19:42:15 10° S 19:45:23 68° E 19:48:34 10° NNE
Envisat 3.4 19:42:11 10° SE 19:46:57 43° ENE 19:51:44 10° N
ATLAS CENTAUR R/B 2.1 19:49:50 10° SSE 19:52:46 23° ESE 19:55:47 10° ENE
H-2A R/B 4.0 19:50:10 10° S 19:53:42 44° W 19:57:19 10° NNW
Cosmos 1340 3.0 19:51:32 10° SSE 19:55:09 44° E 19:58:46 10° NNE
GPS 2-05 Rocket1 3.6 19:55:40 10° W 19:58:52 40° SSW 20:01:59 10° SE
In-Cosmos 22 Rocket 4.2 19:54:12 10° N 19:59:34 57° E 20:04:47 10° SSE
FREGAT/IRIS 3.3 19:59:41 10° S 20:02:35 54° W 20:05:29 10° NNW
Cosmos 2074 Rocket 4.4 20:01:59 10° SSW 20:08:16 71° W 20:14:33 10° N
SL-24 R/B - RUBIN 2 4.1 20:07:52 10° NNW 20:11:59 40° ENE 20:15:15 15° ESE
Sakura Rocket 4.0 20:10:05 10° SW 20:14:22 31° S 20:16:51 17° ESE
SJ-6B 2.9 20:10:54 10° SSE 20:14:58 87° WSW 20:18:59 10° NNW
Cosmos 1610 Rocket 4.4 20:08:51 10° S 20:14:58 86° E 20:21:09 10° N
Thor Agena Rocket 3.5 20:10:16 10° NNE 20:15:31 74° ESE 20:20:48 10° S
Cosmos 1666 Rocket 3.9 20:12:13 10° N 20:16:33 47° E 20:20:49 10° SSE
Cosmos 1939 Rocket 3.3 20:14:36 12° SE 20:17:55 41° ENE 20:21:35 10° N
Resurs 1-3 4.1 20:14:50 12° SE 20:18:36 40° ENE 20:22:42 10° N
USA 186 1.4 20:18:07 25° SE 20:18:59 38° ENE 20:21:07 10° N
HJ-1C 4.3 20:16:02 10° S 20:19:16 49° W 20:22:32 10° NNW
Meteor 2-21 Rocket 4.4 20:16:53 10° S 20:22:54 64° E 20:29:00 10° NNE
Meteor 2-3 Rocket 4.2 20:17:54 10° N 20:23:09 39° ENE 20:27:23 15° SE
Cosmos 1151 Rocket 3.8 20:24:43 17° SE 20:27:10 29° E 20:30:52 10° NNE
Sich 1 2.9 20:24:51 10° N 20:29:08 75° E 20:33:23 10° S
Spot 2 Rocket 4.0 20:26:22 17° SE 20:29:57 42° ENE 20:34:43 10° N
ATLAS 2AS CENTAUR R/B 3.5 20:23:13 10° NNW 20:30:35 41° NE 20:35:15 20° ESE
Cosmos 1980 3.7 20:36:27 10° S 20:41:59 58° ESE 20:47:34 10° NNE
Nadezhda 3 Rocket 4.0 20:35:50 10° N 20:42:10 88° E 20:48:32 10° S
OAO 2 Rocket 3.3 20:41:40 10° W 20:46:53 77° SSW 20:49:18 31° ESE
Meteor 1-27 4.2 20:43:12 10° S 20:48:57 90° W 20:54:40 10° N
Cosmos 1633 Rocket 3.0 20:45:12 10° N 20:49:34 85° W 20:52:48 18° S
Cosmos 2333 Rocket 2.5 20:44:53 10° SSW 20:50:32 71° WNW 20:56:11 10° NNE
Meteor 2-16 Rocket 4.5 20:48:20 10° S 20:54:28 84° W 21:00:38 10° N
COSMOS 2428 4.3 20:50:39 10° SW 20:55:54 36° WNW 21:01:09 10° N
Cosmos 1455 2.7 20:52:14 10° SSW 20:56:00 59° W 20:59:49 10° N
Cosmos 2228 Rocket 2.9 20:52:50 18° S 20:56:05 72° E 21:00:28 10° N
Cosmos 1515 Rocket 3.5 20:52:49 16° S 20:56:17 73° E 21:00:44 10° N
ERS-2 3.9 20:54:46 10° SSW 20:58:02 31° W 21:01:20 10° NW
Cosmos 1408 3.2 20:58:41 10° N 21:01:43 40° ENE 21:01:43 40° ENE
Cosmos 1844 Rocket 3.2 20:56:57 10° NNW 21:02:30 56° WSW 21:06:44 17° S
Cosmos 1844 3.9 21:00:27 10° NNW 21:06:08 70° WSW 21:09:34 25° S
Cosmos 1892 3.9 21:02:30 10° NNW 21:06:10 41° W 21:08:58 16° SSW
SL-8 R/B 4.2 21:03:02 10° WSW 21:07:45 60° NW 21:12:30 10° NE
H-2A R/B 3.0 21:07:50 28° ENE 21:07:52 29° ENE 21:12:07 10° NNE
Cosmos 2219 Rocket 3.5 21:03:56 10° SW 21:09:14 40° WNW 21:14:33 10° N
Cosmos 2237 Rocket 2.1 21:04:01 10° SSW 21:09:37 86° WNW 21:15:17 10° NNE
ERS-1 Rocket 4.1 21:10:13 27° ENE 21:10:13 27° ENE 21:14:15 10° NNE
MetOp-A 4.5 21:12:25 41° E 21:13:09 44° ENE 21:18:12 10° N
USA 267 3.4 21:08:52 10° NE 21:15:09 48° SE 21:21:23 10° SSW
Cosmos 1371 Rocket 3.9 21:11:58 22° S 21:15:22 70° ESE 21:20:42 10° NNE
Resurs 01 Rocket 2.8 21:16:04 17° SSW 21:19:04 39° W 21:23:14 10° NNW
Genesis I 3.4 21:16:40 10° NNW 21:20:28 65° NNE 21:20:28 65° NNE
Cosmos 2278 Rocket 2.2 21:16:54 10° NNW 21:22:34 66° ENE 21:23:35 55° ESE
NOAA 11 4.4 21:20:32 30° S 21:23:17 70° WSW 21:28:46 10° NNW
OAO 1 4.5 21:19:51 10° W 21:25:19 65° SSW 21:26:00 59° SSE
Cosmos 1959 Rocket 4.4 21:23:07 21° S 21:27:30 87° W 21:33:40 10° N
Cosmos 1727 Rocket 4.0 21:25:01 10° N 21:31:04 55° E 21:31:34 53° E
ATLAS CENTAUR R/B 3.8 21:28:54 10° W 21:31:39 20° NW 21:34:29 10° N
Cosmos 1470 Rocket 4.2 21:27:23 10° NNW 21:31:41 54° W 21:32:39 44° SW
Cosmos 2056 Rocket 3.4 21:35:44 55° S 21:36:58 87° ESE 21:42:24 10° NNE
Cosmos 2098 Rocket 3.3 21:39:29 68° WSW 21:39:52 73° W 21:44:01 10° N
Cosmos 2218 Rocket 4.3 21:37:26 17° SSW 21:42:25 65° W 21:48:47 10° N
Cosmos 1825 3.5 21:43:44 10° NNW 21:46:31 38° NW 21:46:31 38° NW
Cosmos 1624 Rocket 4.4 21:52:46 43° SW 21:54:14 59° WNW 21:59:22 10° N
SL-16 R/B 2.2 21:59:34 74° N 21:59:34 74° N 22:04:44 10° NNE
Cosmos 2344 3.4 21:58:41 65° SE 21:59:09 66° ESE 22:07:00 10° NE
Terra 4.0 22:05:06 17° NNE 22:05:06 17° NNE 22:06:32 10° NNE
ARGOS 3.6 22:07:10 56° W 22:07:10 56° W 22:12:22 10° NNW
GEOS 3 Rocket 4.2 22:02:01 10° NNE 22:07:14 56° NW 22:12:20 10° SW
SPOT 5 4.4 22:19:20 29° N 22:19:20 29° N 22:21:34 10° N
ATLAS 2AS CENTAUR R/B 3.7 22:14:28 10° NW 22:21:29 40° WSW 22:22:42 37° SW
ATLAS 2A CENTAUR R/B 4.2 22:25:05 10° WSW 22:36:37 40° SSW 22:36:37 40° SSW
Cosmos 2369 Rocket 4.2 22:38:00 10° N 22:40:15 18° NNE 22:40:15 18° NNE
H-2A R/B 3.9 22:48:27 24° WNW 22:48:27 24° WNW 22:51:26 10° NW
NOSS 3-4 (A) 4.1 22:44:58 10° NW 22:51:00 65° NW 22:51:00 65° NW
NOSS 3-4 (C) 4.1 22:45:04 10° NNW 22:51:06 65° NW 22:51:06 65° NW
USA 267 4.2 22:51:56 10° NNE 22:58:02 44° NW 23:04:09 10° WSW
ATLAS 5 CENTAUR R/B 4.2 23:09:33 10° N 23:12:39 23° NNE 23:12:39 23° NNE
USA 234 4.4 23:30:25 38° N 23:30:25 38° N 23:35:00 10° NNW
